Weather History for PHMK - June, 2013

Change the Weather History Date:

Monday, June 10, 2013

  Actual Average Record
Temperature  
Mean Temperature 76 °F -  
Max Temperature 81 °F 83 °F 88 °F (1984)
Min Temperature 71 °F 69 °F 62 °F (1957)
Cooling Degree Days 11    
Growing Degree Days 26 (Base 50)    
Moisture  
Dew Point 68 °F    
Average Humidity 79    
Maximum Humidity 90    
Minimum Humidity 65    
Precipitation  
Precipitation 0.00 in - - ()
Sea Level Pressure  
Sea Level Pressure 30.06 in    
Wind  
Wind Speed 13 mph (NE)    
Max Wind Speed 23 mph    
Max Gust Speed 33 mph    
Visibility 10 miles    
Events      
Averages and records for this station are not official NWS values.
T = Trace of Precipitation, MM = Missing Value Source: NWS Daily Summary

Daily Weather History Graph

Daily Weather History Graph

Search for Another Location

Airport or City:

Trip Planner

Search our weather history database for the weather conditions in past years. The results will help you decide how hot, cold, wet, or windy it might be!

Date:

Astronomy

Jun. 10, 2013 Rise Set
Actual Time 5:46 AM HST 7:09 PM HST
Civil Twilight 5:21 AM HST 7:34 PM HST
Nautical Twilight 4:51 AM HST 8:04 PM HST
Astronomical Twilight 4:21 AM HST 8:34 PM HST
Moon 7:34 AM HST (6/10) 8:56 PM HST (6/10)
Length of Visible Light 14h 13m
Length of Day
13h 23m
Waxing Crescent, 5% of the Moon is Illuminated
Jun 10
Waxing Crescent
Jun 16
First Quarter
Jun 23
Full
Jun 29
Last Quarter
Jul 7
New

Hourly Weather History & Observations

Time (HST) Temp. Heat Index Dew Point Humidity Pressure Visibility Wind Dir Wind Speed Gust Speed Precip Events Conditions
12:54 AM 72.0 °F - 68.0 °F 87% 30.09 in 10.0 mi NE 12.7 mph 20.7 mph N/A   Scattered Clouds
1:54 AM 72.0 °F - 68.0 °F 87% 30.08 in 10.0 mi NE 10.4 mph - N/A   Partly Cloudy
2:54 AM 72.0 °F - 66.9 °F 84% 30.06 in 10.0 mi NE 10.4 mph 18.4 mph N/A   Clear
3:54 AM 72.0 °F - 68.0 °F 87% 30.06 in 10.0 mi NE 8.1 mph 18.4 mph N/A   Mostly Cloudy
4:54 AM 72.0 °F - 68.0 °F 87% 30.07 in 10.0 mi NE 10.4 mph - N/A   Mostly Cloudy
5:54 AM 71.1 °F - 68.0 °F 90% 30.08 in 10.0 mi NE 12.7 mph 18.4 mph 0.00 in   Mostly Cloudy
6:54 AM 73.0 °F - 68.0 °F 84% 30.10 in 10.0 mi NE 5.8 mph - 0.00 in   Mostly Cloudy
7:54 AM 73.9 °F - 69.1 °F 85% 30.09 in 10.0 mi NE 11.5 mph 18.4 mph N/A   Mostly Cloudy
8:54 AM 75.9 °F - 68.0 °F 76% 30.10 in 10.0 mi NE 10.4 mph 21.9 mph N/A   Scattered Clouds
9:54 AM 75.9 °F - 68.0 °F 76% 30.09 in 10.0 mi NE 16.1 mph 31.1 mph N/A   Scattered Clouds
10:54 AM 78.1 °F - 68.0 °F 71% 30.08 in 10.0 mi NNE 16.1 mph 26.5 mph N/A   Scattered Clouds
11:54 AM 80.1 °F 82.7 °F 68.0 °F 67% 30.07 in 10.0 mi NNE 17.3 mph 26.5 mph N/A   Scattered Clouds
12:54 PM 81.0 °F 83.8 °F 68.0 °F 65% 30.06 in 10.0 mi NE 18.4 mph 28.8 mph N/A   Scattered Clouds
1:54 PM 80.1 °F 82.9 °F 69.1 °F 69% 30.04 in 10.0 mi NE 19.6 mph 28.8 mph N/A   Scattered Clouds
2:54 PM 79.0 °F - 68.0 °F 69% 30.03 in 10.0 mi NE 23.0 mph 33.4 mph N/A   Scattered Clouds
3:54 PM 79.0 °F - 68.0 °F 69% 30.02 in 10.0 mi NNE 16.1 mph 27.6 mph N/A   Scattered Clouds
4:54 PM 78.1 °F - 68.0 °F 71% 30.01 in 10.0 mi NE 16.1 mph 27.6 mph N/A   Partly Cloudy
5:54 PM 75.0 °F - 68.0 °F 79% 30.02 in 10.0 mi NE 16.1 mph 26.5 mph N/A   Scattered Clouds
6:54 PM 73.9 °F - 68.0 °F 82% 30.04 in 10.0 mi NNE 12.7 mph 20.7 mph N/A   Scattered Clouds
7:54 PM 73.0 °F - 69.1 °F 87% 30.05 in 10.0 mi NE 13.8 mph 24.2 mph N/A   Mostly Cloudy
8:54 PM 73.0 °F - 68.0 °F 84% 30.06 in 10.0 mi NE 11.5 mph 19.6 mph N/A   Partly Cloudy
9:54 PM 73.0 °F - 68.0 °F 84% 30.06 in 10.0 mi NE 11.5 mph 20.7 mph N/A   Mostly Cloudy
10:54 PM 73.0 °F - 68.0 °F 84% 30.07 in 10.0 mi ENE 8.1 mph - N/A   Clear
11:54 PM 73.0 °F - 68.0 °F 84% 30.06 in 10.0 mi ENE 13.8 mph 20.7 mph N/A   Clear